DW4395 Weather Reports


time (UTC)temp
C
wind
direction
speed
KPH
gust
KPH
rain 1hr
cm
rain 24hr
cm
rain mn
cm
humidity
%
barometer
mb
20260509064521 20 0.0 0.0 0.00 0.00 0.00 49 1024.2
20260509063702 21 0.0 0.0 0.00 0.00 0.00 49 1024.2
20260509062520 21 0.0 0.0 0.00 0.00 0.00 48 1024.2
20260509061521 21 0.0 1.6 0.00 0.00 0.00 48 1024.2
20260509060521 21 0.0 1.6 0.00 0.00 0.00 48 1024.1
20260509055520 21 0.0 0.0 0.00 0.00 0.00 47 1024.0
20260509054525 21 0.0 1.6 0.00 0.00 0.00 48 1023.9
20260509053520 22 0.0 1.6 0.00 0.00 0.00 46 1023.9
20260509052520 22 0.0 0.0 0.00 0.00 0.00 47 1023.9
20260509051521 22 0.0 3.2 0.00 0.00 0.00 46 1023.8
20260509050520 22 0.0 1.6 0.00 0.00 0.00 46 1023.9
20260509045521 23 0.0 1.6 0.00 0.00 0.00 45 1023.9
20260509044521 23 0.0 0.0 0.00 0.00 0.00 45 1023.9
20260509043520 23 0.0 0.0 0.00 0.00 0.00 45 1023.9
20260509042520 23 0.0 1.6 0.00 0.00 0.00 44 1024.0
20260509041521 23 0.0 1.6 0.00 0.00 0.00 46 1023.9
20260509040521 23 0.0 3.2 0.00 0.00 0.00 47 1023.8
20260509035521 25 0.0 0.0 0.00 0.00 0.00 43 1023.9
20260509034521 24 0.0 1.6 0.00 0.00 0.00 47 1023.9
20260509033701 23 0.0 1.6 0.00 0.00 0.00 47 1024.0
20260509032520 23 0.0 1.6 0.00 0.00 0.00 49 1024.0
20260509031521 22 0.0 1.6 0.00 0.00 0.00 49 1024.1
20260509030522 21 0.0 1.6 0.00 0.00 0.00 52 1024.0
20260509025523 21 0.0 1.6 0.00 0.00 0.00 52 1024.4
20260509024703 21 0.0 0.0 0.00 0.00 0.00 54 1024.7
20260509023702 22 0.0 3.2 0.00 0.00 0.00 51 1024.8
20260509022522 21 0.0 1.6 0.00 0.00 0.00 54 1025.1
20260509021523 21 0.0 1.6 0.00 0.00 0.00 54 1025.2
20260509020523 20 0.0 1.6 0.00 0.00 0.00 56 1025.4
20260509015519 20 0.0 1.6 0.00 0.00 0.00 55 1025.5
20260509014523 21 0.0 3.2 0.00 0.00 0.00 53 1025.9
20260509013522 22 0.0 1.6 0.00 0.00 0.00 53 1025.8
20260509012523 21 0.0 1.6 0.00 0.00 0.00 54 1025.8
20260509011521 21 0.0 1.6 0.00 0.00 0.00 56 1025.9
20260509010520 20 0.0 1.6 0.00 0.00 0.00 56 1026.0
20260509005707 20 0.0 1.6 0.00 0.00 0.00 58 1026.3
20260509003522 20 0.0 1.6 0.00 0.00 0.00 59 1026.4
20260509002522 18 0.0 1.6 0.00 0.00 0.00 62 1026.7
20260509001522 18 0.0 1.6 0.00 0.00 0.00 62 1026.7
20260509000521 17 0.0 1.6 0.00 0.00 0.00 65 1026.6
20260508235843 17 0.0 1.6 0.00 0.00 0.00 67 1026.7
20260508234521 16 0.0 3.2 0.00 0.00 0.00 68 1026.7
20260508233520 16 0.0 1.6 0.00 0.00 0.00 70 1027.0
20260508232522 15 0.0 1.6 0.00 0.00 0.00 74 1026.9
20260508231522 14 0.0 1.6 0.00 0.00 0.00 77 1026.8
20260508230522 13 0.0 1.6 0.00 0.00 0.00 79 1026.7
20260508225520 12 0.0 0.0 0.00 0.00 0.00 84 1026.9
20260508224522 11 0.0 0.0 0.00 0.00 0.00 93 1026.8
20260508223701 10 0.0 0.0 0.00 0.00 0.00 97 1026.7
20260508222521 8 0.0 0.0 0.00 0.00 0.00 98 1026.6
20260508221521 8 0.0 0.0 0.00 0.00 0.00 98 1026.5
20260508220703 7 0.0 0.0 0.00 0.00 0.00 97 1026.4
20260508215521 6 0.0 0.0 0.00 0.00 0.00 97 1026.2
20260508214520 5 0.0 0.0 0.00 0.00 0.00 97 1026.2
20260508213521 4 0.0 0.0 0.00 0.00 0.00 96 1026.1
20260508212522 3 0.0 0.0 0.00 0.00 0.00 96 1026.0
20260508211521 3 0.0 0.0 0.00 0.00 0.00 96 1025.9
20260508210522 2 0.0 0.0 0.00 0.00 0.00 96 1025.7
20260508205703 2 0.0 0.0 0.00 0.00 0.00 95 1025.7
20260508204521 2 0.0 0.0 0.00 0.00 0.00 94 1025.6
20260508203522 1 0.0 0.0 0.00 0.00 0.00 94 1025.4
20260508202521 2 0.0 0.0 0.00 0.00 0.00 94 1025.3
20260508201703 2 0.0 0.0 0.00 0.00 0.00 94 1025.0
20260508200522 2 0.0 0.0 0.00 0.00 0.00 94 1024.9
20260508195521 2 0.0 0.0 0.00 0.00 0.00 94 1024.9
20260508194521 2 0.0 0.0 0.00 0.00 0.00 94 1024.7
20260508193521 2 0.0 0.0 0.00 0.00 0.00 94 1024.7
20260508192521 2 0.0 0.0 0.00 0.00 0.00 94 1024.6
20260508191522 2 0.0 0.0 0.00 0.00 0.00 93 1024.4
20260508190521 2 0.0 0.0 0.00 0.00 0.00 93 1024.4
20260508185521 3 0.0 0.0 0.00 0.00 0.00 94 1024.3
20260508184521 2 0.0 0.0 0.00 0.00 0.00 94 1024.3
20260508183521 2 0.0 0.0 0.00 0.00 0.00 93 1024.1
20260508182521 2 0.0 0.0 0.00 0.00 0.00 93 1024.1
20260508181521 3 0.0 0.0 0.00 0.00 0.00 93 1024.1
20260508180702 3 0.0 0.0 0.00 0.00 0.00 94 1024.1
20260508175520 3 0.0 0.0 0.00 0.00 0.00 93 1024.0
20260508174701 3 0.0 0.0 0.00 0.00 0.00 93 1024.0
20260508173520 3 0.0 0.0 0.00 0.00 0.00 92 1024.1
20260508172704 3 0.0 0.0 0.00 0.00 0.00 92 1024.2
20260508171521 3 0.0 0.0 0.00 0.00 0.00 93 1024.0
20260508170521 3 0.0 0.0 0.00 0.00 0.00 92 1023.9
20260508165521 4 0.0 0.0 0.00 0.00 0.00 92 1023.9
20260508164521 4 0.0 0.0 0.00 0.00 0.00 93 1024.0
20260508162520 4 0.0 0.0 0.00 0.00 0.00 92 1024.0
20260508161521 4 0.0 0.0 0.00 0.00 0.00 92 1024.0
20260508160520 5 0.0 0.0 0.00 0.00 0.00 92 1024.0
20260508155520 5 0.0 0.0 0.00 0.00 0.00 92 1024.1
20260508154520 4 0.0 0.0 0.00 0.00 0.00 92 1024.1
20260508153522 4 0.0 0.0 0.00 0.00 0.00 91 1024.1
20260508152520 5 0.0 0.0 0.00 0.00 0.00 91 1024.0
20260508151522 5 0.0 0.0 0.00 0.00 0.00 91 1023.9
20260508150521 5 0.0 0.0 0.00 0.00 0.00 91 1023.9
20260508145520 5 0.0 0.0 0.00 0.00 0.00 91 1023.9
20260508144702 5 0.0 0.0 0.00 0.00 0.00 91 1023.8
20260508143520 5 0.0 0.0 0.00 0.00 0.00 91 1023.8
20260508142520 5 0.0 0.0 0.00 0.00 0.00 90 1023.9
20260508141521 5 0.0 0.0 0.00 0.00 0.00 91 1023.8
20260508140521 5 0.0 0.0 0.00 0.00 0.00 89 1023.9
20260508135522 5 0.0 0.0 0.00 0.00 0.00 90 1023.8
20260508134521 5 0.0 0.0 0.00 0.00 0.00 90 1023.8
20260508133521 5 0.0 0.0 0.00 0.00 0.00 90 1023.7
20260508132520 5 0.0 0.0 0.00 0.00 0.00 89 1023.6
20260508131521 5 0.0 0.0 0.00 0.00 0.00 88 1023.5
20260508130520 6 0.0 0.0 0.00 0.00 0.00 89 1023.7
20260508125521 5 0.0 0.0 0.00 0.00 0.00 88 1023.8
20260508124521 6 0.0 0.0 0.00 0.00 0.00 88 1023.7
20260508123521 6 0.0 0.0 0.00 0.00 0.00 88 1023.8
20260508122522 6 0.0 0.0 0.00 0.00 0.00 87 1023.9
20260508121521 6 0.0 0.0 0.00 0.00 0.00 87 1023.9
20260508120522 6 0.0 0.0 0.00 0.00 0.00 85 1023.9
20260508115520 6 0.0 0.0 0.00 0.00 0.00 85 1023.9
20260508114521 6 0.0 0.0 0.00 0.00 0.00 85 1023.9
20260508113521 7 0.0 0.0 0.00 0.00 0.00 85 1023.8
20260508112521 7 0.0 0.0 0.00 0.00 0.00 85 1023.8
20260508111521 7 0.0 0.0 0.00 0.00 0.00 83 1023.8
20260508110520 7 0.0 0.0 0.00 0.00 0.00 83 1023.6
20260508105520 8 0.0 0.0 0.00 0.00 0.00 82 1023.5
20260508104702 8 0.0 0.0 0.00 0.00 0.00 81 1023.4
20260508103521 8 0.0 0.0 0.00 0.00 0.00 80 1023.3
20260508102520 9 0.0 0.0 0.00 0.00 0.00 79 1023.3
20260508101521 9 0.0 0.0 0.00 0.00 0.00 78 1023.1
20260508100524 10 0.0 0.0 0.00 0.00 0.00 77 1023.0
20260508095521 10 0.0 0.0 0.00 0.00 0.00 76 1022.7
20260508094521 10 0.0 0.0 0.00 0.00 0.00 75 1022.7
20260508093525 11 0.0 0.0 0.00 0.00 0.00 73 1022.3
20260508092521 11 0.0 0.0 0.00 0.00 0.00 72 1022.4
20260508091520 12 0.0 1.6 0.00 0.00 0.00 72 1022.2
20260508090522 12 0.0 0.0 0.00 0.00 0.00 69 1021.9
20260508085525 13 0.0 1.6 0.00 0.00 0.00 68 1021.5
20260508084522 13 0.0 1.6 0.00 0.00 0.00 66 1021.3
20260508083701 13 0.0 0.0 0.00 0.00 0.00 65 1021.1
20260508082520 14 0.0 0.0 0.00 0.00 0.00 64 1020.9
20260508081522 15 0.0 1.6 0.00 0.00 0.00 63 1020.9
20260508080521 15 0.0 0.0 0.00 0.00 0.00 61 1020.6
20260508075520 16 0.0 0.0 0.00 0.00 0.00 60 1020.5
20260508074520 16 0.0 1.6 0.00 0.00 0.00 59 1020.2
20260508073521 16 0.0 1.6 0.00 0.00 0.00 57 1019.9
20260508072521 17 0.0 3.2 0.00 0.00 0.00 56 1019.7
20260508071521 17 0.0 1.6 0.00 0.00 0.00 55 1019.3
20260508070520 18 0.0 1.6 0.00 0.00 0.00 54 1019.1
20260508065521 18 0.0 4.8 0.00 0.00 0.00 53 1018.9